ELEKTRO-L 2 1 41105U 15074A 21063.83218715 -.00000127 00000-0 00000-0 0 9996 2 41105 1.8251 93.8373 0001152 163.5763 190.4316 1.00270516 19155 FREGAT R/B 1 41106U 15074B 21063.50650685 -.00000295 00000-0 00000-0 0 9993 2 41106 3.5616 81.8798 0188123 304.3301 54.1977 1.02896733 19645 FREGAT DEB [TANK] 1 41108U 15074D 21063.89798795 .00015205 43229-5 43448-3 0 9999 2 41108 50.3651 21.7366 2030877 56.1470 321.6366 11.39329743213028